Location: Garos
(43.5000°N, 0.4667°W)
Time: 17:40:25
(UTC+00:00)

Cosmos 2219 Rocket - Pass Details

Date: 03 February 2023
Orbit: 826 x 848 km, 71.0° (Epoch: 30 March)

Event Time Altitude Azimuth Distance (km) Brightness Sun altitude
Rises 18:02:47 0° 159° (SSE) 3,349 5.2 -9.0°
Reaches altitude 10° 18:05:55 10° 141° (SE) 2,422 4.3 -9.5°
Maximum altitude 18:09:36 18° 99° (E) 1,907 3.5 -10.2°
Enters shadow 18:12:21 13° 66° (ENE) 2,219 3.8 -10.6°
